Weather Roundup
Issued by NWS

Home | Current Version | Previous Version | Text Only | Print | Product List | Glossary On
Versions: 1 2 3 4 5 6 7 8 9 10 11 12 13 14 15 16 17 18 19 20 21 22 23 24 25 26 27 28 29 30 31 32 33 34 35 36 37 38 39 40 41 42 43 44 45 46 47 48 49 50
563
NZUS93 KARX 260110
HRRWXR

CURRENT HOURLY OBSERVATIONS ACROSS
MUCH OF THE UPPER MISSISSIPPI VALLEY
NATIONAL WEATHER SERVICE LA CROSSE WI
800 PM CDT MON JUL 25 2016


...SOUTHEAST MINNESOTA...


CITY           SKY/WX    TMP DP  RH WIND       PRES   REMARKS
ROCHESTER      CLEAR     77  68  73 NW5       30.05S
ROCHESTER/MAYO FAIR      80  63  56 W10       30.05S
WINONA         CLEAR     81  63  54 CALM      30.01S
AUSTIN         CLEAR     77  64  65 NW3       30.05S
ALBERT LEA     CLEAR     79  66  65 CALM      30.06S
DODGE CENTER   CLEAR     79  63  57 NW5       30.06S
PRESTON        CLEAR     76  65  67 NW3       30.06R
OWATONNA       CLEAR     79  68  69 CALM      30.05S
FARIBAULT      CLEAR     79  68  69 CALM      30.05R
$$

...ELSEWHERE IN MINNESOTA...


CITY           SKY/WX    TMP DP  RH WIND       PRES   REMARKS
MINNEAPOLIS    PTCLDY    84  63  49 W10       30.02S
INTNL FALLS    CLEAR     77  61  57 W3        29.95R
DULUTH         CLEAR     78  64  61 W7        29.99S
RED WING       CLEAR     81  72  74 CALM      30.00S
REDWOOD FALLS  CLEAR     83  66  56 SW6       30.02S
MANKATO        CLEAR     81  64  57 CALM      30.04S
WORTHINGTON    CLEAR     80  64  58 MISG      30.07S
FAIRMONT       CLEAR     82  66  57 CALM      30.05S
$$

...SOUTHWEST WISCONSIN...


CITY           SKY/WX    TMP DP  RH WIND       PRES   REMARKS
LA CROSSE      CLEAR     81  65  58 NW3       30.01R
PRAIRIE DU CHI CLEAR     76  66  71 CALM      30.02R
BOSCOBEL       CLEAR     80  67  64 NW3       30.02R
LONE ROCK      CLEAR     77  68  73 N6        30.02R
PLATTEVILLE    CLEAR     78  66  66 NW3       30.04R
FORT MC COY    CLEAR     79  65  63 CALM      30.03R
CAMP DOUGLAS   PTCLDY    75  68  78 W3        30.01R
MAUSTON-NEW LI CLEAR     77  66  68 CALM      30.01R
VIROQUA        FAIR      76  66  71 CALM      30.05R
WIS DELLS      PTCLDY    77  62  60 NW3       30.02S
$$

...ELSEWHERE IN WISCONSIN...


CITY           SKY/WX    TMP DP  RH WIND       PRES   REMARKS
MILWAUKEE      PTCLDY    80  62  54 SE5       29.99R
MADISON        PTCLDY    78  65  63 CALM      30.01R
GREEN BAY      PTCLDY    75  70  84 W6        29.97S
EAU CLAIRE     CLEAR     80  63  55 NW3       30.01R
BLACK RVR FLS  FAIR      79  62  55 CALM      30.01S
MEDFORD        CLEAR     74  62  66 W5        30.03R
WAUSAU         CLEAR     79  58  48 NW6       30.00S
WIS RAPIDS     CLEAR     78  60  53 NW3       30.02S
MARSHFIELD     CLEAR     77  62  59 W5        30.02S
RICE LAKE      CLEAR     78  63  60 CALM      30.03S
$$

...NORTHEAST IOWA...


CITY           SKY/WX    TMP DP  RH WIND       PRES   REMARKS
WATERLOO       CLEAR     79  65  62 N5        30.03R
DUBUQUE        CLEAR     76  66  71 NW5       30.04S
DECORAH        CLEAR     77  64  65 CALM      30.04R
MASON CITY     CLEAR     78  66  66 NW5       30.07S
CHARLES CITY   CLEAR     77  70  78 N3        30.05S
OELWEIN        CLEAR     79  68  69 CALM      30.05S
$$

...ELSEWHERE IN IOWA...


CITY           SKY/WX    TMP DP  RH WIND       PRES   REMARKS
DES MOINES     PTCLDY    84  62  47 NE7       30.03S
IOWA CITY      CLEAR     80  64  58 N7        30.03S
FORT DODGE     CLEAR     81  68  65 CALM      30.06S
MARSHALLTOWN   CLEAR     79  68  69 NE3       30.04R
CEDAR RAPIDS   PTCLDY    78  68  71 N6        30.02S
$$

...NORTHERN ILLINOIS...


CITY           SKY/WX    TMP DP  RH WIND       PRES   REMARKS
CHICAGO-OHARE  PTCLDY    81  63  54 E6        29.98S
CHICAGO-MIDWAY CLOUDY    82  61  48 E7        29.98S
MOLINE         PTCLDY    83  64  52 N5        30.00S
ROCKFORD       PTCLDY    83  65  54 W6        30.01S
PEORIA         MOCLDY    80  71  74 CALM      30.01R
$$

NOTE: "FAIR" INDICATES FEW OR NO CLOUDS BELOW 12,000 FEET WITH NO
SIGNIFICANT WEATHER AND/OR OBSTRUCTIONS TO VISIBILITY. WIND
SPEEDS ARE IN MILES-PER-HOUR.




USA.gov is the U.S. government's official web portal to all federal, state and local government web resources and services.